Simultaneous Nadir Overpasses (SNOs) Predictions

Prediction of SNOs between NOAA-15 and METOP-C Satellite Orbit:

Table of predicted SNOs for the next 14.0 days since TLE Epoch: 11/16/2024
Index Date (NOAA-15) Time (NOAA-15) Lat,Lon (NOAA-15) SZA (NOAA-15 ) Date (METOP-C) Time (METOP-C) Lat,Lon (METOP-C) SZA (METOP-C ) Distance(km) Time Diff (sec)
1 11/24/2024 07:54:48 -81.03, -80.94 76.24 11/24/2024 07:53:36 -81.02, -81.02 76.28 1.83 72
2 11/24/2024 08:45:20 81.02, 86.64 103.79 11/24/2024 08:44:15 81.04, 86.69 103.78 2.04 65
3 11/24/2024 09:35:46 -81.03,-106.20 76.22 11/24/2024 09:34:56 -81.03,-106.13 76.24 1.16 50
4 11/24/2024 10:26:18 81.02, 61.38 103.80 11/24/2024 10:25:36 81.03, 61.21 103.77 3.19 42
5 11/24/2024 11:16:45 -81.03,-131.46 76.21 11/24/2024 11:16:18 -81.03,-131.61 76.24 2.79 27
6 11/24/2024 12:07:18 81.04, 35.76 103.79 11/24/2024 12:06:58 81.03, 35.73 103.77 1.70 20
7 11/24/2024 12:57:44 -81.03,-156.72 76.20 11/24/2024 12:57:39 -81.04,-156.72 76.20 0.17 5
8 11/24/2024 13:48:17 81.04, 10.51 103.80 11/24/2024 13:48:19 81.04, 10.62 103.81 2.10 2
9 11/24/2024 14:38:43 -81.03, 178.03 76.19 11/24/2024 14:39:00 -81.04, 178.17 76.16 2.73 17
10 11/24/2024 15:29:16 81.04, -14.75 103.82 11/24/2024 15:29:41 81.03, -14.86 103.81 2.26 25
11 11/24/2024 16:19:42 -81.04, 152.77 76.17 11/24/2024 16:20:22 -81.04, 152.69 76.16 1.38 40
12 11/24/2024 17:10:15 81.04, -40.00 103.83 11/24/2024 17:11:02 81.04, -39.97 103.85 0.75 47
13 11/24/2024 18:00:41 -81.04, 127.51 76.16 11/24/2024 18:01:43 -81.05, 127.58 76.12 1.89 62



Historial Predications of SNOs between NOAA-15 and METOP-C
